WetterOnline ( https://www.wetteronline.de )

Wetter aktuell Rathenow

Aktuelles Wetter: Genthin (39m)

6-stündlich | Neueste Meldungen
Ortszeit Temperatur Wetter
Do, 13.08. 20:00 25.0° C bedeckt
Do, 13.08. 14:00 25.0° C bedeckt
Do, 13.08. 8:00 18.8° C wolkig
Do, 13.08. 2:00 18.6° C leicht bewölkt
Mi, 12.08. 20:00 27.8° C wolkenlos
Mi, 12.08. 14:00 30.5° C wolkenlos
Mi, 12.08. 8:00 21.1° C wolkenlos
Mi, 12.08. 2:00 20.0° C wolkenlos
Ortszeit Temperatur Wetter
Do, 13.08. 20:00 25.0° C bedeckt
Do, 13.08. 19:30 25.3° C bedeckt
Do, 13.08. 19:20 25.3° C bedeckt
Do, 13.08. 19:10 25.5° C bedeckt
Do, 13.08. 19:00 25.7° C bedeckt
Do, 13.08. 18:50 25.7° C bedeckt
Do, 13.08. 18:30 26.3° C wolkig
Do, 13.08. 18:00 26.2° C wolkig
Do, 13.08. 17:30 26.3° C wolkig
Do, 13.08. 17:00 26.3° C bedeckt
Do, 13.08. 16:30 26.2° C bedeckt
Ortszeit Relative Feuchte Sichtweite
Do, 13.08. 20:00 63% 35 km
Do, 13.08. 14:00 56% 45 km
Do, 13.08. 8:00 71% 50 km
Do, 13.08. 2:00 57% 50 km
Mi, 12.08. 20:00 28% 65 km
Mi, 12.08. 14:00 32% 45 km
Mi, 12.08. 8:00 65% 50 km
Mi, 12.08. 2:00 73% 55 km
Ortszeit Relative Feuchte Sichtweite
Do, 13.08. 20:00 63% 35 km
Do, 13.08. 19:30 69% 35 km
Do, 13.08. 19:20 69% -
Do, 13.08. 19:10 66% -
Do, 13.08. 19:00 63% 40 km
Do, 13.08. 18:50 63% -
Do, 13.08. 18:30 55% 40 km
Do, 13.08. 18:00 53% 45 km
Do, 13.08. 17:30 53% 40 km
Do, 13.08. 17:00 51% 45 km
Do, 13.08. 16:30 52% 35 km
Ortszeit Niederschlagsmenge Niederschlagsart
Do, 13.08. 20:00 0.1 l/m2 in 12 Std. -
Do, 13.08. 14:00 0.1 l/m2 in 6 Std. Regen
Do, 13.08. 8:00 0.3 l/m2 in 12 Std. Regen
Do, 13.08. 2:00 0.0 l/m2 in 6 Std. -
Mi, 12.08. 20:00 0.0 l/m2 in 12 Std. -
Mi, 12.08. 14:00 0.0 l/m2 in 6 Std. -
Mi, 12.08. 8:00 0.0 l/m2 in 12 Std. -
Mi, 12.08. 2:00 0.0 l/m2 in 6 Std. -
Ortszeit Niederschlagsmenge Niederschlagsart
Do, 13.08. 20:00 keine Meldung -
Do, 13.08. 19:30 0.0 l/m2 in 1 Std. -
Do, 13.08. 19:20 keine Meldung -
Do, 13.08. 19:10 keine Meldung -
Do, 13.08. 19:00 0.0 l/m2 in 1 Std. -
Do, 13.08. 18:50 keine Meldung -
Do, 13.08. 18:30 0.0 l/m2 in 1 Std. -
Do, 13.08. 18:00 0.0 l/m2 in 1 Std. -
Do, 13.08. 17:30 0.0 l/m2 in 1 Std. -
Do, 13.08. 17:00 0.0 l/m2 in 1 Std. -
Do, 13.08. 16:30 0.0 l/m2 in 1 Std. -
Ortszeit Stärke Spitze Richtung
km/h Bft. km/h Grad Sektor
Do, 13.08. 20:00 2 1 11 220° SW
Do, 13.08. 14:00 7 2 14 150° SO
Do, 13.08. 8:00 7 2 18 60° NO
Do, 13.08. 2:00 9 2 19 20° N
Mi, 12.08. 20:00 11 2 36 60° NO
Mi, 12.08. 14:00 20 4 35 60° NO
Mi, 12.08. 8:00 7 2 15 80° O
Mi, 12.08. 2:00 9 2 20 50° NO
Ortszeit Stärke Spitze Richtung
km/h Bft. km/h Grad Sektor
Do, 13.08. 20:00 2 1 11 220° SW
Do, 13.08. 19:30 0 0 4 - -
Do, 13.08. 19:20 2 1 - 300° NW
Do, 13.08. 19:10 0 0 - 310° NW
Do, 13.08. 19:00 0 0 4 - -
Do, 13.08. 18:50 2 1 - 120° SO
Do, 13.08. 18:30 0 0 4 - -
Do, 13.08. 18:00 0 0 7 - -
Do, 13.08. 17:30 2 1 7 80° O
Do, 13.08. 17:00 6 1 11 180° S
Do, 13.08. 16:30 4 1 11 120° SO
Ortszeit Untergrenze Bedeckung Gattung
total tief tief mittel hoch
Do, 13.08. 20:00 3000 m 8/8 8/8 - - -
Do, 13.08. 14:00 2700 m 8/8 8/8 - - -
Do, 13.08. 8:00 2700 m 8/8 1/8 - - -
Do, 13.08. 2:00 2400 m 2/8 1/8 - - -
Mi, 12.08. 20:00 - 0/8 0/8 - - -
Mi, 12.08. 14:00 - 0/8 0/8 - - -
Mi, 12.08. 8:00 - 0/8 0/8 - - -
Mi, 12.08. 2:00 - 0/8 0/8 - - -
Ortszeit Bedeckungsgrad in Achtel und Wolkenuntergrenze
Do, 13.08. 20:00 8(3000m) 8(3600m)
Do, 13.08. 19:30 8(3300m)
Do, 13.08. 19:20 8(3300m)
Do, 13.08. 19:10 8(3600m)
Do, 13.08. 19:00 8(3600m)
Do, 13.08. 18:50 8(3600m)
Do, 13.08. 18:30 1(2400m) 8(3300m)
Do, 13.08. 18:00 3(2400m) 8(3300m)
Do, 13.08. 17:30 3(2100m) 8(3000m)
Do, 13.08. 17:00 8(3300m)
Do, 13.08. 16:30 8(3300m)
Ortszeit Luftdruck NN (hPa) Tendenz (hPa in 3 Std.)
Do, 13.08. 20:00 1013 - 0,7
Do, 13.08. 14:00 1015 - 0,5
Do, 13.08. 8:00 1015 - 0,8
Do, 13.08. 2:00 1016 - 0,2
Mi, 12.08. 20:00 1016 - 0,7
Mi, 12.08. 14:00 1018 - 0,9
Mi, 12.08. 8:00 1020 + 0,6
Mi, 12.08. 2:00 1020 + 0,3
Ortszeit Luftdruck NN (hPa) Tendenz (hPa in 3 Std.)
Do, 13.08. 20:00 1013 - 0,7
Do, 13.08. 19:30 1013 - 0,8
Do, 13.08. 19:20 1013 keine Meldung
Do, 13.08. 19:10 1013 keine Meldung
Do, 13.08. 19:00 1013 - 1,0
Do, 13.08. 18:50 1013 keine Meldung
Do, 13.08. 18:30 1013 - 1,0
Do, 13.08. 18:00 1013 - 0,8
Do, 13.08. 17:30 1014 - 0,8
Do, 13.08. 17:00 1014 - 1,0
Do, 13.08. 16:30 1014 - 0,9
Ortszeit Schneehöhe (cm)
Do, 13.08. 20:00 -
Do, 13.08. 14:00 -
Do, 13.08. 8:00 -
Do, 13.08. 2:00 -
Mi, 12.08. 20:00 -
Mi, 12.08. 14:00 -
Mi, 12.08. 8:00 -
Mi, 12.08. 2:00 -
Ortszeit Schneehöhe (cm)
Do, 13.08. 20:00 -
Do, 13.08. 19:30 -
Do, 13.08. 19:20 -
Do, 13.08. 19:10 -
Do, 13.08. 19:00 -
Do, 13.08. 18:50 -
Do, 13.08. 18:30 -
Do, 13.08. 18:00 -
Do, 13.08. 17:30 -
Do, 13.08. 17:00 -
Do, 13.08. 16:30 -
Link zu dieser Seite / Seite empfehlen

Das Wetter in ...